K5RNB Weather Reports


Display with metric or nautical units.
time (UTC)temp
F
wind
direction
speed
MPH
gust
MPH
rain 1hr
in
rain 24hr
in
rain mn
in
humidity
%
barometer
mb
20260831225449 99 163 8.0 14.0 0.00 0.00 0.00 34 1011.6
20260831224950 99 190 9.0 14.0 0.00 0.00 0.00 34 1011.6
20260831224450 99 188 10.0 16.0 0.00 0.00 0.00 33 1011.5
20260831223950 99 211 9.0 16.0 0.00 0.00 0.00 34 1011.7
20260831223450 99 202 10.0 14.0 0.00 0.00 0.00 34 1011.6
20260831222950 99 188 7.0 17.0 0.00 0.00 0.00 35 1011.7
20260831222450 99 148 10.0 17.0 0.00 0.00 0.00 34 1011.7
20260831221949 99 182 9.0 17.0 0.00 0.00 0.00 34 1011.8
20260831221450 99 164 7.0 17.0 0.00 0.00 0.00 34 1011.9
20260831220950 99 174 9.0 16.0 0.00 0.00 0.00 34 1011.8
20260831220450 99 169 10.0 17.0 0.00 0.00 0.00 34 1011.9
20260831215950 99 189 12.0 17.0 0.00 0.00 0.00 34 1011.9
20260831215450 99 181 10.0 17.0 0.00 0.00 0.00 34 1012.0
20260831214950 99 150 9.0 18.0 0.00 0.00 0.00 34 1012.0
20260831214450 99 188 10.0 18.0 0.00 0.00 0.00 34 1012.1
20260831213950 99 151 10.0 18.0 0.00 0.00 0.00 35 1012.1
20260831213450 99 143 10.0 18.0 0.00 0.00 0.00 35 1012.1
20260831212950 99 170 10.0 20.0 0.00 0.00 0.00 35 1012.2
20260831212450 99 169 9.0 20.0 0.00 0.00 0.00 34 1012.3
20260831211951 99 193 12.0 18.0 0.00 0.00 0.00 34 1012.3
20260831211450 99 172 11.0 18.0 0.00 0.00 0.00 35 1012.3
20260831210950 99 152 9.0 18.0 0.00 0.00 0.00 35 1012.3
20260831210450 99 169 9.0 17.0 0.00 0.00 0.00 34 1012.4
20260831205951 99 199 8.0 18.0 0.00 0.00 0.00 34 1012.4
20260831205451 99 158 10.0 18.0 0.00 0.00 0.00 34 1012.7
20260831204953 99 215 8.0 17.0 0.00 0.00 0.00 34 1012.8
20260831204450 99 172 10.0 18.0 0.00 0.00 0.00 34 1012.8
20260831203950 99 202 13.0 18.0 0.00 0.00 0.00 34 1012.9
20260831203451 99 148 13.0 18.0 0.00 0.00 0.00 33 1013.0
20260831202952 99 190 9.0 17.0 0.00 0.00 0.00 34 1013.0
20260831202451 98 196 10.0 20.0 0.00 0.00 0.00 35 1013.0
20260831201451 98 179 12.0 24.0 0.00 0.00 0.00 35 1013.1
20260831200950 98 170 16.0 24.0 0.00 0.00 0.00 34 1013.2
20260831200451 98 145 11.0 20.0 0.00 0.00 0.00 36 1013.2
20260831195950 98 168 10.0 21.0 0.00 0.00 0.00 34 1013.4
20260831195451 98 186 13.0 21.0 0.00 0.00 0.00 36 1013.4
20260831194950 98 202 10.0 17.0 0.00 0.00 0.00 36 1013.5
20260831194452 98 175 12.0 20.0 0.00 0.00 0.00 37 1013.6
20260831193451 97 160 8.0 18.0 0.00 0.00 0.00 37 1013.7
20260831192951 97 181 13.0 21.0 0.00 0.00 0.00 37 1013.7
20260831191951 97 162 13.0 20.0 0.00 0.00 0.00 37 1013.8
20260831191451 97 181 11.0 21.0 0.00 0.00 0.00 38 1013.9
20260831190951 97 139 12.0 24.0 0.00 0.00 0.00 37 1013.8
20260831190451 97 158 14.0 24.0 0.00 0.00 0.00 37 1014.0
20260831185950 96 163 13.0 23.0 0.00 0.00 0.00 39 1014.0
20260831185450 96 144 7.0 22.0 0.00 0.00 0.00 39 1013.9
20260831184951 97 158 12.0 22.0 0.00 0.00 0.00 40 1014.0
20260831184451 97 139 9.0 18.0 0.00 0.00 0.00 40 1014.0
20260831183951 97 156 10.0 18.0 0.00 0.00 0.00 40 1014.2
20260831182951 97 133 6.0 16.0 0.00 0.00 0.00 40 1014.3
20260831182451 96 143 7.0 17.0 0.00 0.00 0.00 41 1014.3
20260831181951 96 119 10.0 17.0 0.00 0.00 0.00 43 1014.5
20260831181451 95 134 7.0 15.0 0.00 0.00 0.00 42 1014.5
20260831180951 95 163 7.0 15.0 0.00 0.00 0.00 43 1014.6
20260831180452 96 179 9.0 15.0 0.00 0.00 0.00 42 1014.8
20260831175951 96 124 7.0 20.0 0.00 0.00 0.00 42 1014.8
20260831175452 95 101 10.0 20.0 0.00 0.00 0.00 43 1014.9
20260831174951 95 127 7.0 18.0 0.00 0.00 0.00 44 1015.0
20260831174452 96 149 12.0 18.0 0.00 0.00 0.00 42 1015.0
20260831173451 96 155 7.0 15.0 0.00 0.00 0.00 43 1015.1
20260831172953 95 125 5.0 18.0 0.00 0.00 0.00 43 1015.1
20260831171452 95 131 8.0 14.0 0.00 0.00 0.00 44 1015.3
20260831170952 94 151 6.0 17.0 0.00 0.00 0.00 44 1015.3
20260831170451 94 114 11.0 17.0 0.00 0.00 0.00 44 1015.3
20260831165952 95 135 11.0 16.0 0.00 0.00 0.00 45 1015.3
20260831165451 95 149 8.0 16.0 0.00 0.00 0.00 44 1015.2
20260831164952 95 108 6.0 13.0 0.00 0.00 0.00 44 1015.1
20260831164452 94 126 6.0 17.0 0.00 0.00 0.00 45 1015.3
20260831163951 94 110 6.0 17.0 0.00 0.00 0.00 45 1015.3
20260831163452 94 162 7.0 16.0 0.00 0.00 0.00 45 1015.3
20260831162952 93 192 9.0 17.0 0.00 0.00 0.00 44 1015.4
20260831162451 93 209 9.0 17.0 0.00 0.00 0.00 45 1015.5
20260831161952 94 170 9.0 17.0 0.00 0.00 0.00 43 1015.4
20260831161452 94 196 10.0 17.0 0.00 0.00 0.00 44 1015.5
20260831160952 93 215 7.0 14.0 0.00 0.00 0.00 45 1015.3
20260831160452 93 197 9.0 14.0 0.00 0.00 0.00 44 1015.5
20260831155953 93 214 7.0 15.0 0.00 0.00 0.00 45 1015.4
20260831154952 92 231 9.0 14.0 0.00 0.00 0.00 44 1015.4
20260831154451 92 198 6.0 13.0 0.00 0.00 0.00 46 1015.4
20260831153952 92 223 7.0 13.0 0.00 0.00 0.00 47 1015.5
20260831153452 92 205 6.0 12.0 0.00 0.00 0.00 47 1015.3
20260831152952 91 222 7.0 12.0 0.00 0.00 0.00 48 1015.4
20260831152452 91 208 5.0 12.0 0.00 0.00 0.00 49 1015.3
20260831151952 91 210 6.0 12.0 0.00 0.00 0.00 51 1015.4
20260831150453 89 203 7.0 13.0 0.00 0.00 0.00 55 1015.3
20260831145952 89 209 7.0 13.0 0.00 0.00 0.00 55 1015.3
20260831145453 88 198 7.0 12.0 0.00 0.00 0.00 57 1015.3
20260831144953 88 163 7.0 13.0 0.00 0.00 0.00 56 1015.4
20260831142452 86 201 9.0 12.0 0.00 0.00 0.00 61 1015.4
20260831140452 85 202 7.0 12.0 0.00 0.00 0.00 66 1015.4
20260831135453 85 171 6.0 10.0 0.00 0.00 0.00 68 1015.1
20260831134953 84 148 6.0 10.0 0.00 0.00 0.00 69 1015.1
20260831134453 84 135 7.0 10.0 0.00 0.00 0.00 70 1015.0
20260831133952 83 150 6.0 10.0 0.00 0.00 0.00 70 1015.0
20260831133453 83 159 6.0 9.0 0.00 0.00 0.00 71 1014.9
20260831132953 83 164 5.0 8.0 0.00 0.00 0.00 72 1014.9
20260831132452 82 156 6.0 8.0 0.00 0.00 0.00 72 1014.7
20260831131953 82 152 5.0 8.0 0.00 0.00 0.00 73 1014.6
20260831130953 80 137 3.0 6.0 0.00 0.00 0.00 76 1014.5
20260831130453 80 147 2.0 5.0 0.00 0.00 0.00 76 1014.5
20260831125952 80 156 2.0 3.0 0.00 0.00 0.00 76 1014.4
20260831125453 79 158 1.0 5.0 0.00 0.00 0.00 76 1014.3
20260831124453 79 139 3.0 3.0 0.00 0.00 0.00 77 1014.1
20260831123454 78 145 2.0 3.0 0.00 0.00 0.00 77 1014.0
20260831122953 78 150 2.0 3.0 0.00 0.00 0.00 77 1014.0
20260831122453 78 134 2.0 3.0 0.00 0.00 0.00 77 1013.9
20260831121954 78 151 2.0 3.0 0.00 0.00 0.00 77 1013.8
20260831121453 78 142 2.0 5.0 0.00 0.00 0.00 77 1013.6
20260831120954 78 147 3.0 6.0 0.00 0.00 0.00 77 1013.7
20260831115953 78 170 3.0 3.0 0.00 0.00 0.00 75 1013.5
20260831114954 78 157 1.0 3.0 0.00 0.00 0.00 74 1013.4
20260831114455 78 164 2.0 3.0 0.00 0.00 0.00 74 1013.4
20260831113953 78 155 2.0 3.0 0.00 0.00 0.00 74 1013.3
20260831112954 78 165 3.0 3.0 0.00 0.00 0.00 73 1013.2
20260831112453 79 167 3.0 3.0 0.00 0.00 0.00 73 1013.3
20260831111454 79 184 2.0 3.0 0.00 0.00 0.00 73 1013.1
20260831110954 79 184 2.0 3.0 0.00 0.00 0.00 73 1013.1
20260831110454 79 184 2.0 3.0 0.00 0.00 0.00 72 1013.0
20260831105954 79 184 3.0 5.0 0.00 0.00 0.00 72 1013.1
20260831104454 79 184 3.0 6.0 0.00 0.00 0.00 72 1012.9
20260831103454 79 141 5.0 6.0 0.00 0.00 0.00 72 1012.9
20260831102955 79 155 4.0 6.0 0.00 0.00 0.00 71 1012.9
20260831102454 79 143 3.0 6.0 0.00 0.00 0.00 70 1013.0
20260831101954 79 154 2.0 3.0 0.00 0.00 0.00 70 1012.9
20260831100954 79 157 3.0 3.0 0.00 0.00 0.00 69 1012.9
20260831100454 80 167 3.0 3.0 0.00 0.00 0.00 68 1012.9
20260831095954 80 156 2.0 3.0 0.00 0.00 0.00 68 1012.7
20260831095454 79 155 2.0 3.0 0.00 0.00 0.00 68 1012.8
20260831094954 79 155 2.0 5.0 0.00 0.00 0.00 68 1012.7
20260831094454 80 165 3.0 5.0 0.00 0.00 0.00 67 1012.7
20260831093954 80 154 3.0 5.0 0.00 0.00 0.00 67 1012.8
20260831093454 80 145 2.0 5.0 0.00 0.00 0.00 67 1012.7
20260831092955 80 153 1.0 3.0 0.00 0.00 0.00 67 1012.7
20260831092454 80 153 2.0 5.0 0.00 0.00 0.00 66 1012.6
20260831091456 81 143 3.0 5.0 0.00 0.00 0.00 65 1012.5
20260831090955 81 122 3.0 5.0 0.00 0.00 0.00 64 1012.6
20260831090455 81 124 3.0 5.0 0.00 0.00 0.00 63 1012.5
20260831085455 82 145 3.0 5.0 0.00 0.00 0.00 63 1012.5
20260831084955 82 148 3.0 6.0 0.00 0.00 0.00 63 1012.6
20260831084455 82 163 4.0 6.0 0.00 0.00 0.00 63 1012.4
20260831083955 82 157 5.0 6.0 0.00 0.00 0.00 62 1012.5
20260831083454 82 162 5.0 6.0 0.00 0.00 0.00 62 1012.5
20260831082454 82 181 5.0 6.0 0.00 0.00 0.00 62 1012.5
20260831081954 82 175 5.0 6.0 0.00 0.00 0.00 62 1012.5
20260831081455 82 177 5.0 7.0 0.00 0.00 0.00 62 1012.5
20260831080455 81 179 5.0 7.0 0.00 0.00 0.00 63 1012.6
20260831075955 81 175 5.0 6.0 0.00 0.00 0.00 64 1012.4
20260831075456 81 178 4.0 7.0 0.00 0.00 0.00 65 1012.4
20260831074955 80 175 5.0 7.0 0.00 0.00 0.00 66 1012.3
20260831073956 80 177 3.0 3.0 0.00 0.00 0.00 69 1012.2
20260831073455 80 135 2.0 3.0 0.00 0.00 0.00 70 1012.2
20260831072955 80 135 2.0 3.0 0.00 0.00 0.00 71 1012.1
20260831072455 80 135 2.0 3.0 0.00 0.00 0.00 72 1012.2
20260831071956 80 107 2.0 3.0 0.00 0.00 0.00 72 1012.1
20260831070955 80 107 1.0 2.0 0.00 0.00 0.00 72 1012.3
20260831070456 80 107 1.0 1.0 0.00 0.00 0.00 71 1012.3
20260831065955 80 105 0.0 1.0 0.00 0.00 0.00 71 1012.4
20260831065456 80 161 0.0 2.0 0.00 0.00 0.00 71 1012.2
20260831064955 80 163 2.0 2.0 0.00 0.00 0.00 70 1012.4
20260831063955 81 160 0.0 1.0 0.00 0.00 0.00 69 1012.5
20260831063455 81 160 0.0 1.0 0.00 0.00 0.00 68 1012.4
20260831062956 81 160 0.0 2.0 0.00 0.00 0.00 67 1012.5
20260831062455 81 160 0.0 3.0 0.00 0.00 0.00 67 1012.4
20260831061955 81 160 2.0 3.0 0.00 0.00 0.00 66 1012.6
20260831061456 82 139 0.0 2.0 0.00 0.00 0.00 66 1012.5
20260831060955 82 150 0.0 2.0 0.00 0.00 0.00 65 1012.6
20260831060455 82 150 0.0 3.0 0.00 0.00 0.00 64 1012.5
20260831055455 82 148 2.0 5.0 0.00 0.00 0.00 63 1012.4
20260831054455 82 141 3.0 5.0 0.00 0.00 0.00 62 1012.4
20260831053956 82 146 3.0 5.0 0.00 0.00 0.00 63 1012.5
20260831053456 82 160 3.0 5.0 0.00 0.00 0.00 63 1012.4
20260831052956 82 164 1.0 3.0 0.00 0.00 0.00 62 1012.4
20260831052456 82 164 2.0 3.0 0.00 0.00 0.00 62 1012.4
20260831051956 82 150 2.0 3.0 0.00 0.00 0.00 62 1012.3
20260831051456 82 138 1.0 3.0 0.00 0.00 0.00 63 1012.3
20260831050956 82 105 0.0 2.0 0.00 0.00 0.00 62 1012.3
20260831050456 82 105 1.0 2.0 0.00 0.00 0.00 62 1012.2
20260831045956 82 105 1.0 2.0 0.00 0.00 0.00 63 1012.2
20260831045457 82 92 0.0 1.0 0.00 0.00 0.00 63 1012.2
20260831044956 82 92 0.0 1.0 0.00 0.00 0.00 62 1012.3
20260831044456 82 92 0.0 1.0 0.00 0.00 0.00 62 1012.2
20260831043956 82 92 0.0 1.0 0.00 0.00 0.00 63 1012.3
20260831043456 82 92 0.0 1.0 0.00 0.00 0.00 61 1012.3
20260831042956 83 92 0.0 1.0 0.00 0.00 0.00 61 1012.3
20260831041956 83 92 0.0 1.0 0.00 0.00 0.00 58 1012.2
20260831041456 84 92 0.0 1.0 0.00 0.00 0.00 59 1012.1
20260831040957 84 92 0.0 1.0 0.00 0.00 0.00 60 1012.3
20260831040456 83 90 0.0 1.0 0.00 0.00 0.00 59 1012.1
20260831035956 83 90 0.0 1.0 0.00 0.00 0.00 60 1012.2
20260831035457 83 90 0.0 1.0 0.00 0.00 0.00 60 1012.1
20260831034957 83 74 0.0 0.0 0.00 0.00 0.00 58 1012.2
20260831034456 84 74 0.0 1.0 0.00 0.00 0.00 58 1012.1
20260831033957 84 74 0.0 1.0 0.00 0.00 0.00 59 1012.1
20260831033457 84 74 0.0 1.0 0.00 0.00 0.00 60 1012.0
20260831032956 84 74 0.0 1.0 0.00 0.00 0.00 60 1012.1
20260831032456 84 74 0.0 1.0 0.00 0.00 0.00 60 1011.9
20260831031957 84 74 0.0 1.0 0.00 0.00 0.00 58 1012.0
20260831031456 84 74 0.0 1.0 0.00 0.00 0.00 58 1011.9
20260831030457 84 78 0.0 1.0 0.00 0.00 0.00 59 1011.7
20260831025958 84 78 0.0 1.0 0.00 0.00 0.00 58 1011.8
20260831025456 85 78 0.0 1.0 0.00 0.00 0.00 56 1011.6
20260831024957 85 78 0.0 1.0 0.00 0.00 0.00 55 1011.7
20260831023958 86 78 0.0 1.0 0.00 0.00 0.00 55 1011.6
20260831023457 87 78 0.0 1.0 0.00 0.00 0.00 53 1011.4
20260831022957 87 78 0.0 1.0 0.00 0.00 0.00 51 1011.5
20260831022456 88 78 0.0 1.0 0.00 0.00 0.00 51 1011.3
20260831021957 88 80 0.0 1.0 0.00 0.00 0.00 49 1011.4
20260831021457 88 86 0.0 1.0 0.00 0.00 0.00 48 1011.2
20260831015957 89 151 2.0 3.0 0.00 0.00 0.00 45 1011.0
20260831014958 91 97 0.0 1.0 0.00 0.00 0.00 46 1010.9
20260831014457 91 111 0.0 1.0 0.00 0.00 0.00 44 1010.8
20260831013458 91 113 0.0 2.0 0.00 0.00 0.00 43 1010.9
20260831012957 92 151 1.0 2.0 0.00 0.00 0.00 42 1010.8
20260831012457 92 151 1.0 3.0 0.00 0.00 0.00 42 1010.7
20260831011958 92 151 2.0 5.0 0.00 0.00 0.00 41 1010.7
20260831011457 93 159 2.0 5.0 0.00 0.00 0.00 41 1010.7
20260831010957 93 135 3.0 3.0 0.00 0.00 0.00 40 1010.6
20260831010457 93 152 2.0 5.0 0.00 0.00 0.00 40 1010.5
20260831005957 94 146 3.0 6.0 0.00 0.00 0.00 39 1010.5
20260831005458 95 140 4.0 6.0 0.00 0.00 0.00 38 1010.5
20260831004957 95 131 3.0 6.0 0.00 0.00 0.00 38 1010.5
20260831003957 95 129 4.0 7.0 0.00 0.00 0.00 38 1010.5
20260831003457 96 139 5.0 8.0 0.00 0.00 0.00 38 1010.5
20260831002958 96 156 5.0 8.0 0.00 0.00 0.00 37 1010.5
20260831002458 96 154 5.0 8.0 0.00 0.00 0.00 37 1010.6
20260831001958 96 159 5.0 10.0 0.00 0.00 0.00 37 1010.6
20260831001457 97 155 5.0 12.0 0.00 0.00 0.00 37 1010.5
20260831000958 97 160 6.0 12.0 0.00 0.00 0.00 36 1010.5
20260831000457 97 166 6.0 9.0 0.00 0.00 0.00 36 1010.5
20260830235958 97 147 6.0 9.0 0.00 0.00 0.00 36 1010.6
20260830235457 97 181 6.0 10.0 0.00 0.00 0.00 36 1010.6
20260830234957 97 156 6.0 14.0 0.00 0.00 0.00 36 1010.6
20260830233958 98 149 10.0 14.0 0.00 0.00 0.00 35 1010.6
20260830233457 98 156 9.0 14.0 0.00 0.00 0.00 34 1010.6
20260830232458 98 157 7.0 13.0 0.00 0.00 0.00 34 1010.7
20260830231958 98 164 7.0 13.0 0.00 0.00 0.00 34 1010.6
20260830231458 98 175 8.0 12.0 0.00 0.00 0.00 34 1010.6
20260830230959 98 189 8.0 13.0 0.00 0.00 0.00 34 1010.6
20260830230458 98 164 9.0 15.0 0.00 0.00 0.00 34 1010.8
20260830225958 99 162 9.0 15.0 0.00 0.00 0.00 34 1010.8